McGrath, AK

12:01 AM AKST on February 26, 2017 (GMT -0900)
Nikolai AP, Nikolai, AK

Weather History for PAFS - May, 2014

Change the Weather History Date:

Thursday, May 15, 2014

  Actual Average (PAMC) Record (PAMC)
Temperature  
Mean Temperature 52 °F -  
Max Temperature 72 °F 54 °F 73 °F (2014)
Min Temperature 32 °F 33 °F 22 °F (2013)
Degree Days  
Heating Degree Days 13    
Growing Degree Days 2 (Base 50)    
Moisture  
Dew Point 30 °F    
Average Humidity 44    
Maximum Humidity 89    
Minimum Humidity 19    
Precipitation  
Precipitation 0.00 in - - ()
Sea Level Pressure  
Sea Level Pressure 30.37 in    
Wind  
Wind Speed 2 mph (West)    
Max Wind Speed 13 mph    
Max Gust Speed 18 mph    
Visibility 10 miles    
Events      
Averages and records for this station are not official NWS values.
T = Trace of Precipitation, MM = Missing Value Source: NWS Daily Summary

Daily Weather History Graph

Daily Weather History Graph

Search for Another Location

Airport or City:

Trip Planner

Search our weather history database for the weather conditions in past years. The results will help you decide how hot, cold, wet, or windy it might be!

Date:

Astronomy

May. 15, 2014 Rise Set
Actual Time 5:13 AM AKDT 11:16 PM AKDT
Civil Twilight 3:48 AM AKDT 12:44 AM AKDT
Nautical Twilight Sun does not rise Sun does not rise
Astronomical Twilight Sun does not rise Sun does not rise
Moon No Moon Rise 6:17 AM AKDT (5/15)
Length of Visible Light 20h 56m
Length of Day
18h 02m
Full, 99% of the Moon is Illuminated
May 15
Full
May 21
Last Quarter
May 28
New
Jun 5
First Quarter
Jun 12
Full

Hourly Weather History & Observations

Time (AKDT) Temp. Dew Point Humidity Pressure Visibility Wind Dir Wind Speed Gust Speed Precip Events Conditions
12:56 AM 41.9 °F 32.0 °F 68% 30.42 in 10.0 mi Calm Calm - N/A   Clear
1:56 AM 38.8 °F 32.0 °F 76% 30.42 in 10.0 mi Calm Calm - N/A   Clear
2:56 AM 36.9 °F 32.0 °F 83% 30.42 in 10.0 mi Calm Calm - N/A   Clear
3:56 AM 34.9 °F 32.0 °F 89% 30.43 in 10.0 mi Calm Calm - N/A   Clear
4:56 AM 32.9 °F 30.0 °F 89% 30.43 in 10.0 mi Calm Calm - N/A   Clear
5:56 AM 34.9 °F 28.0 °F 76% 30.43 in 10.0 mi Calm Calm - N/A   Clear
6:56 AM 36.0 °F 32.0 °F 86% 30.43 in 10.0 mi Calm Calm - N/A   Clear
7:56 AM 43.0 °F 29.1 °F 58% 30.43 in 10.0 mi Calm Calm - N/A   Clear
8:56 AM 46.9 °F 31.1 °F 54% 30.44 in 10.0 mi Calm Calm - N/A   Clear
9:56 AM 53.6 °F 30.2 °F 41% 30.40 in 10.0 mi Calm Calm - N/A   Clear
10:56 AM 59.0 °F 29.1 °F 32% 30.42 in 10.0 mi Calm Calm - N/A   Scattered Clouds
11:56 AM 63.0 °F 29.1 °F 28% 30.41 in 10.0 mi Calm Calm - N/A   Clear
12:56 PM 66.9 °F 28.0 °F 23% 30.40 in 10.0 mi West 8.1 mph - N/A   Partly Cloudy
1:56 PM 68.0 °F 26.1 °F 21% 30.38 in 10.0 mi West 12.7 mph - N/A   Partly Cloudy
2:56 PM 70.0 °F 27.1 °F 20% 30.37 in 10.0 mi WSW 6.9 mph 18.4 mph N/A   Clear
3:56 PM 70.9 °F 26.1 °F 19% 30.34 in 10.0 mi WSW 10.4 mph - N/A   Clear
4:56 PM 70.9 °F 27.1 °F 20% 30.33 in 10.0 mi West 8.1 mph - N/A   Partly Cloudy
5:56 PM 72.0 °F 27.1 °F 19% 30.31 in 10.0 mi SW 9.2 mph - N/A   Clear
6:56 PM 72.0 °F 29.1 °F 20% 30.30 in 10.0 mi West 4.6 mph - N/A   Partly Cloudy
7:56 PM 72.0 °F 27.1 °F 19% 30.29 in 10.0 mi West 8.1 mph - N/A   Clear
8:56 PM 70.0 °F 30.0 °F 23% 30.29 in 10.0 mi WNW 5.8 mph - N/A   Clear
9:56 PM 66.9 °F 32.0 °F 27% 30.29 in 10.0 mi Calm Calm - N/A   Clear
10:56 PM 63.0 °F 32.9 °F 32% 30.30 in 10.0 mi Calm Calm - N/A   Clear
11:56 PM 59.0 °F 34.0 °F 39% 30.30 in 10.0 mi Calm Calm - N/A   Scattered Clouds